Theta_e
361 360 357 357 358 358 360 358 355 354 361 355 354 357 358 361 363 365 362 364 366 366 371 374 373 372 362 370 375 373 371 369 369 367 368 366 364 359 355 356 359 360
361 361 362 358 363 365 365 361 360 361 362 367 366 367 367 364 356 364 364 363 367 363 371 369 371 371 369 365 370 369 371 368 368 362 365 364 363 357 356 357 355 360
357 358 355 354 351 353 352 358 364 360 357 356 358 367 359 359 359 366 369 363 363 361 369 371 371 371 367 368 373 368 364 370 366 363 368 366 364 362 363 355 354 354
359 358 353 352 351 350 351 355 359 364 360 359 357 355 357 357 358 359 364 365 367 366 363 365 367 365 366 367 372 370 367 371 366 370 366 371 368 364 361 360 358 357
356 357 355 354 354 356 356 352 352 354 355 358 355 360 363 367 368 359 363 363 368 363 367 368 366 365 369 370 370 369 367 365 365 370 370 368 368 364 359 358 358 355
359 362 361 357 356 356 350 351 352 352 354 352 353 355 358 360 358 359 363 360 360 359 358 359 363 363 364 369 369 368 366 360 361 369 367 367 363 360 358 359 364 360
354 356 355 355 353 352 350 351 352 354 352 353 358 355 357 357 359 361 362 362 360 362 359 363 365 364 362 367 368 369 369 367 367 371 368 365 367 365 361 359 363 362
352 353 355 354 351 350 350 349 349 352 353 356 353 355 356 355 359 356 358 358 357 361 362 363 366 370 360 361 364 365 364 362 361 366 368 367 370 367 366 363 363 364
354 350 351 352 350 349 347 347 348 348 352 350 350 351 358 357 357 357 363 363 360 364 363 363 361 361 363 364 363 364 364 361 359 363 364 361 361 364 362 364 360 361
355 355 356 357 352 346 346 346 346 346 349 348 348 349 349 354 355 356 361 366 361 364 365 364 364 362 361 361 363 363 363 365 366 367 363 362 361 360 358 360 359 361
354 357 358 359 354 352 350 350 353 349 347 347 346 346 348 348 356 359 359 362 357 359 361 362 360 359 360 356 357 361 359 355 351 352 354 358 362 363 362 363 363 360
357 358 362 360 358 358 360 360 353 350 353 350 347 347 348 347 349 349 352 357 357 357 357 359 363 362 363 364 359 359 355 354 355 355 356 357 359 359 362 361 360 360
357 360 361 358 359 359 362 360 356 353 353 352 349 350 352 346 345 349 351 351 358 359 360 365 365 360 365 366 362 362 359 356 356 354 356 357 357 357 358 358 356 355
359 359 364 362 362 364 363 361 359 359 359 357 356 355 349 351 349 345 346 348 351 355 363 367 358 356 359 364 365 362 361 360 359 356 355 356 356 358 358 357 357 358
364 369 367 365 364 364 364 363 364 366 364 361 360 357 351 351 352 352 355 354 353 358 358 355 356 358 363 362 361 361 361 360 360 360 359 357 358 359 360 358 356 354
364 366 365 364 363 362 361 362 363 362 362 362 362 362 360 360 358 356 355 355 353 356 359 359 357 358 353 352 355 362 361 358 361 360 360 360 361 360 358 358 354 351
363 364 364 363 362 362 363 362 361 360 361 363 361 361 361 361 360 356 353 354 353 353 355 356 354 348 340 338 342 347 357 360 361 363 361 361 359 359 358 356 354 352
357 359 360 360 361 360 360 360 361 361 361 362 361 358 361 360 360 356 356 356 356 355 354 352 344 333 330 333 335 336 344 355 359 360 359 358 359 356 354 355 353 354
353 353 353 354 356 358 359 359 359 358 359 357 358 358 356 355 356 356 355 357 356 354 352 348 338 327 328 330 331 331 335 348 354 357 357 356 357 357 356 353 351 352
350 350 349 350 352 354 354 353 352 352 351 353 355 357 355 354 355 356 357 359 356 354 349 338 332 324 323 324 326 327 330 339 349 352 354 356 356 355 352 353 355 351
349 347 347 350 351 349 349 349 349 348 348 350 351 352 355 354 354 354 354 353 352 347 337 329 321 317 319 320 320 321 326 338 349 351 353 352 346 349 353 348 351 350
348 345 343 345 345 344 344 348 348 348 349 350 349 350 354 353 351 351 349 350 352 345 335 327 321 316 316 317 317 318 325 347 353 356 355 355 350 347 348 349 348 350
349 347 344 345 344 345 345 346 346 346 347 348 346 347 348 348 346 346 348 350 346 338 330 324 320 315 313 313 314 316 330 349 353 354 353 348 344 347 352 350 350 350
348 348 347 345 343 342 342 342 344 345 346 348 347 346 343 342 342 341 342 344 342 336 331 325 321 317 312 311 312 314 329 343 344 346 348 351 351 348 349 348 351 344
346 346 347 346 344 344 344 343 343 343 345 345 343 341 340 340 340 337 336 336 337 335 334 327 324 320 312 311 311 312 324 335 333 333 333 334 336 337 344 349 345 342
344 345 345 344 343 343 345 344 344 343 341 339 337 336 335 335 335 333 331 332 333 332 330 330 328 324 318 310 309 311 315 329 326 324 327 330 331 335 339 334 336 338
Wind_Speed
7 6 7 6 5 5 5 6 7 6 4 5 6 5 6 5 5 4 6 5 6 4 4 4 3 3 4 3 2 3 3 3 3 3 4 4 5 6 6 5 5 4
8 7 6 7 5 4 4 5 5 4 5 4 2 2 2 3 5 3 5 5 4 5 5 5 5 4 4 4 4 3 3 4 4 5 5 5 4 6 6 6 6 4
8 8 9 9 8 9 9 6 4 5 5 6 5 4 6 4 4 4 3 6 7 7 5 5 5 5 5 4 3 4 5 4 4 5 3 3 3 4 5 7 5 6
9 8 9 10 9 9 9 7 5 3 5 5 7 7 6 6 6 7 5 5 3 4 6 6 6 7 6 5 5 5 5 3 4 3 4 2 3 5 6 4 5 6
11 9 8 8 7 6 7 8 9 9 8 5 7 5 5 4 3 4 5 6 4 4 4 5 6 5 5 4 5 5 5 5 5 5 4 4 4 4 6 5 5 6
9 7 6 6 7 6 8 8 8 8 9 8 8 6 4 4 5 5 5 7 8 7 7 7 6 7 5 5 4 4 5 5 5 5 5 4 5 5 6 5 3 5
11 10 11 10 10 9 8 7 7 6 6 7 3 5 6 7 5 5 5 6 7 6 6 3 4 5 5 5 5 5 5 4 4 2 3 4 4 5 7 5 4 5
10 10 10 9 10 9 8 8 7 5 6 5 8 8 6 6 7 8 7 5 7 6 6 4 2 3 6 5 5 5 6 7 6 4 4 4 3 4 4 5 5 5
3 6 10 10 11 9 9 10 9 8 5 7 7 7 5 5 4 6 4 4 5 3 5 6 5 6 5 4 5 6 7 8 6 4 4 4 5 5 5 4 5 6
1 4 5 6 6 7 10 10 9 9 7 8 8 7 8 7 9 7 4 4 4 5 4 4 5 6 6 7 6 6 6 6 5 3 3 3 4 5 6 5 6 4
1 3 1 2 2 2 5 6 9 8 7 8 8 8 8 7 4 5 6 7 8 6 5 5 6 7 6 7 6 5 3 9 12 10 9 9 7 4 6 5 5 5
5 6 4 4 2 2 3 3 6 7 9 5 5 8 7 7 7 6 6 6 6 6 6 6 4 5 5 4 3 5 8 7 6 4 5 7 8 7 5 5 6 5
7 6 6 4 3 5 4 5 6 7 6 5 3 6 8 7 8 6 5 6 5 5 4 2 5 10 10 6 4 4 6 2 3 5 6 4 5 7 8 7 6 5
8 8 6 6 4 3 3 4 5 4 3 3 2 4 4 7 8 8 8 6 6 7 5 4 9 5 1 3 3 2 2 4 3 4 4 4 5 7 7 6 5 5
2 3 3 4 4 3 3 4 3 2 2 3 3 4 5 4 3 7 8 4 8 11 11 7 4 4 2 3 2 2 0 1 1 2 3 3 5 7 6 7 6 10
2 2 1 2 2 2 2 2 2 3 3 4 4 4 5 3 2 2 6 8 7 6 7 6 4 3 5 5 3 1 1 2 2 2 3 3 4 5 6 5 7 1
2 1 1 1 1 1 1 1 2 3 4 4 3 3 4 3 3 2 5 5 7 7 6 5 4 3 7 7 7 6 3 4 4 3 3 3 4 3 2 4 3 3
2 4 4 4 3 2 2 2 2 2 3 3 4 3 3 3 3 3 3 4 5 7 6 5 5 7 7 8 8 7 6 4 3 4 4 4 2 1 1 1 3 2
2 1 2 4 4 3 3 2 2 3 4 4 4 3 3 2 3 2 1 3 6 6 7 7 6 11 9 8 6 6 6 5 4 4 4 5 4 2 1 1 0 2
2 3 2 3 3 3 4 4 3 4 7 6 5 3 1 1 1 2 1 4 6 6 7 9 7 11 11 11 10 8 7 5 3 5 6 5 5 4 2 2 2 1
3 2 3 4 3 4 2 3 4 3 5 2 3 5 3 2 3 3 1 4 7 8 9 9 7 13 12 11 10 10 9 6 3 5 2 6 2 4 5 6 5 5
1 3 5 6 4 4 4 3 3 5 3 4 1 4 3 4 4 4 4 3 3 9 9 8 8 13 12 12 12 12 11 4 3 2 3 1 5 5 3 1 3 1
5 6 5 4 3 4 4 3 5 5 4 3 2 3 3 5 6 5 6 6 9 9 9 8 8 12 14 14 14 14 8 4 3 3 2 5 2 2 2 3 2 1
6 6 6 8 6 4 4 3 4 3 3 1 4 4 4 6 6 7 8 9 10 10 8 8 7 10 14 14 15 16 11 6 6 4 5 3 4 5 4 4 5 14
7 7 8 8 8 8 6 6 6 6 5 6 6 6 7 6 7 8 9 9 8 8 12 8 6 9 11 13 15 15 11 6 6 5 5 6 4 4 5 7 6 7
6 8 9 8 8 9 8 7 6 7 8 8 7 7 7 8 8 8 9 7 8 8 8 7 7 6 8 13 13 14 14 7 6 6 6 5 4 3 3 4 3 2
Wind_Direction
186 181 187 198 194 194 190 195 200 210 217 209 190 196 203 194 209 193 154 181 175 196 168 192 186 186 208 212 207 219 187 213 231 181 215 219 225 245 257 272 281 267
189 185 188 193 195 195 210 208 202 219 182 224 250 131 259 194 191 189 150 164 191 196 174 184 189 203 217 209 192 220 216 219 227 228 192 218 240 258 256 252 258 272
195 192 193 200 200 201 212 210 205 202 207 203 215 166 214 202 196 178 202 174 187 203 182 184 195 197 209 220 179 210 222 229 248 259 255 210 237 248 268 261 241 255
201 201 199 205 207 199 206 208 199 225 230 196 205 210 215 212 186 185 189 207 215 198 191 190 195 204 205 211 176 205 231 226 235 232 249 209 214 249 258 262 274 278
198 205 209 205 214 209 194 209 208 199 217 219 209 209 189 234 213 186 186 185 203 213 205 193 207 216 197 209 199 201 220 221 223 217 239 253 239 241 255 264 267 267
197 200 213 222 213 221 220 209 216 218 202 217 224 214 203 189 220 221 187 201 196 211 220 210 191 219 209 200 212 223 228 235 231 196 217 229 242 245 253 251 266 278
197 200 209 215 224 219 226 227 218 219 221 221 226 231 195 204 210 217 220 186 200 211 221 229 216 195 205 185 195 213 219 235 258 200 208 228 236 251 265 267 243 244
200 197 209 212 220 225 226 235 239 215 220 221 210 229 228 198 200 220 219 227 217 181 218 201 199 208 216 205 199 204 221 225 230 220 215 227 234 255 253 264 273 282
290 228 205 214 219 227 227 226 227 235 229 228 229 241 201 226 216 215 231 228 238 189 204 202 216 212 208 217 209 204 214 232 241 223 226 238 236 237 254 270 271 258
109 310 19 354 301 243 233 231 227 223 224 226 235 235 236 211 209 212 192 233 228 224 229 225 195 200 212 217 224 213 211 215 231 237 238 242 263 278 275 265 269 288
300 272 111 151 132 342 327 337 327 290 228 223 233 245 237 233 222 195 200 190 216 223 231 228 221 224 229 233 236 237 352 13 24 352 327 309 279 245 255 256 254 253
218 221 199 153 143 256 283 322 275 288 312 304 255 233 228 242 239 221 220 216 217 228 223 232 225 233 238 249 291 52 110 145 181 191 238 248 271 274 262 264 268 279
170 222 201 176 185 194 207 220 242 265 284 297 338 355 335 260 234 248 232 215 209 225 242 271 21 26 360 22 48 63 62 73 185 201 234 251 268 270 265 267 278 287
192 203 147 158 174 200 211 232 252 254 263 293 328 310 314 334 305 253 233 225 210 202 213 92 77 105 66 322 13 64 140 170 199 243 250 274 292 294 293 289 284 269
182 130 118 136 166 205 230 242 250 293 327 326 329 308 297 308 338 0 347 329 36 41 55 71 121 100 65 6 7 33 166 298 251 232 269 278 277 279 285 283 315 3
164 125 144 160 187 205 243 286 300 311 323 334 332 332 321 337 344 20 43 55 79 93 106 94 83 89 37 32 13 322 269 237 251 256 262 260 271 289 297 325 70 184
16 232 255 262 255 321 350 334 329 329 332 322 317 318 312 329 334 32 87 90 95 108 112 112 97 72 40 34 40 22 319 247 232 223 226 246 255 253 312 18 23 65
355 355 334 313 313 321 322 328 312 316 310 314 313 307 335 349 29 26 61 92 109 111 117 106 74 40 51 51 47 29 10 320 273 254 253 253 284 11 311 46 20 31
6 340 331 329 321 312 303 309 329 340 350 337 326 1 2 11 31 32 108 133 115 115 106 91 75 22 18 31 46 40 17 336 283 262 261 262 245 245 74 72 274 358
311 305 277 277 295 14 18 12 11 13 358 343 324 303 321 340 77 82 132 104 97 106 89 68 49 9 15 17 18 7 355 339 299 301 288 301 351 2 4 52 36 43
154 109 346 336 17 9 332 308 284 206 209 277 328 306 259 146 94 88 119 113 116 104 81 63 37 13 15 6 5 356 341 305 276 263 325 59 57 300 2 28 353 24
9 45 10 343 354 0 331 284 239 236 190 140 63 330 21 73 30 24 57 348 34 78 84 68 38 16 8 9 3 354 330 296 293 334 45 113 73 13 1 257 266 228
65 122 170 227 284 294 295 345 2 54 64 98 129 299 5 55 71 30 23 61 76 79 80 72 48 17 15 14 7 357 338 309 336 3 22 45 360 92 149 132 176 162
74 72 90 104 111 96 81 72 62 21 28 5 140 149 87 75 66 55 47 47 61 71 71 73 60 29 15 17 13 6 351 9 21 31 51 47 81 72 83 70 73 71
67 70 85 83 79 80 80 79 87 80 54 50 56 57 62 58 58 65 63 57 62 77 83 84 72 47 22 17 21 17 11 24 21 27 28 32 42 35 53 98 97 83
77 75 75 79 82 82 77 78 87 79 75 75 67 66 60 55 55 52 55 49 45 45 44 55 68 62 35 25 22 21 18 27 35 29 24 18 19 10 50 80 74 146